CZ-6A DEB, 54283

Orbit data source: Space-Track

CZ-6A DEB, 54283 is space debris in SSO originally from a launch on Fri, 11 Nov 2022 UTC launched from the Taiyaun Space Center, China (TSC). Debris objects in space refer to the collection of defunct objects orbiting the Earth. Examples of debris include non-operational satellites, rocket bodies, and fragments generated from explosions, collisions, or faulty payload assembly.

Loading next visibility...
Identifier
54283, 2022-151AA
Orbit
SSO
Country
Flag of CNCN / PRC
Related business
Manufacturer
SAST
Mission
Spacecraft
Bus & Motor
Unknown
Mass
Unknown
Launch date (UTC)
2022-11-11 (4 years ago)
Launch vehicle
Unknown
Launch site
Taiyaun Space Center, China (TSC)
Object type
Payload
Rocket body
Debris
Shape & HBR
Unknown shape, 0.2 m
Radar Cross Section
Medium (>0.1 m² and <1 m²)

Expand to show TLE details & history
Last TLE update: 20 hours ago

TLE from 20 hours ago
0 CZ-6A DEB
1 54283U 22151AA  26263.53285135  .00000073  00000-0  65893-4 0  9999
2 54283  98.8436 256.5571 0053749  84.5533 276.1765 14.09031750197729
Epoch: 2026-09-20T12:47Z
TLE epoch observation values (Epoch: 2026-09-20T12:47:18.356Z)
Latitude
-0.00005°
Longitude
65.30495°
Altitude
861.601 km
Speed
7.424 km/s
True Right ascension
17h 06m 13s
True Declination
0° 00' 00"
Sunlit
Object was in daylight at epoch
Visualization orbit readout
Latitude
Unknown
Longitude
Unknown
Altitude
Unknown
Speed
Unknown
Apparent Right ascension
Unknown
Apparent Declination
Unknown
Sunlit
N/A
Visualization observer readout
Local Sidereal Time
02:03:47
Azimuth
Unknown
Elevation
Unknown
Doppler factor
Unknown
Orbital elements
Apogee altitude
898.77 km
Perigee altitude
820.963 km
Semi-major axis
7,238.004 km
Eccentricity
0.00537
Inclination
98.8436°
RAAN
256.5571°
Arg. of periapsis
84.5533°
True anomaly
275.56373°
Mean anomaly
276.1765°
Eccentric anomaly
275.87016°
Mean motion
3.52464 °/min
Orbital period
102.14 mins
BSTAR
0.000065893
Loading maneuver chart data...
Computing Atmospheric mass density...
Loading historical data...
Loading historical data...
Loading historical data...
Loading historical data...
Loading historical data...
Loading historical data...
Loading historical data...

Documentation

Showing up to 5 results
|